Defiance, OH

6:38 AM EST on November 22, 2019 (GMT -0500)
Defiance Memorial

Weather History for KDFI - September, 2019

Change the Weather History Date:

Tuesday, September 24, 2019

  Actual Average Record
Temperature  
Mean Temperature 64 °F -  
Max Temperature 77 °F 68 °F 91 °F (1937)
Min Temperature 52 °F 44 °F 31 °F (1974)
Growing Degree Days 14 (Base 50)    
Moisture  
Dew Point 53 °F    
Average Humidity 70    
Maximum Humidity 93    
Minimum Humidity 41    
Precipitation  
Precipitation 0.00 in - - ()
Sea Level Pressure  
Sea Level Pressure 29.97 in    
Wind  
Wind Speed 3 mph (SW)    
Max Wind Speed 8 mph    
Max Gust Speed -    
Visibility 10 miles    
Events      
Averages and records for this station are not official NWS values.
T = Trace of Precipitation, MM = Missing Value Source: NWS Daily Summary

Daily Weather History Graph

Daily Weather History Graph

Search for Another Location

Airport or City:

Astronomy

Sep. 24, 2019 Rise Set
Actual Time 7:27 AM EDT 7:31 PM EDT
Civil Twilight 6:59 AM EDT 7:59 PM EDT
Nautical Twilight 6:27 AM EDT 8:31 PM EDT
Astronomical Twilight 5:54 AM EDT 9:04 PM EDT
Moon 2:07 AM EDT (9/24) 5:20 PM EDT (9/24)
Length of Visible Light 12h 59m
Length of Day
12h 04m
Waning Crescent, 23% of the Moon is Illuminated
Sep 24
Waning Crescent
Sep 28
New
Oct 5
First Quarter
Oct 13
Full
Oct 21
Last Quarter

Hourly Weather History & Observations

Time (EDT) Temp. Dew Point Humidity Pressure Visibility Wind Dir Wind Speed Gust Speed Precip Events Conditions
12:53 AM 55.9 °F 50.0 °F 80% 30.01 in 10.0 mi WSW 3.5 mph - N/A   Clear
1:53 AM 55.0 °F 50.0 °F 83% 30.01 in 10.0 mi Calm Calm - N/A   Clear
2:53 AM 55.0 °F 50.0 °F 83% 30.00 in 10.0 mi Calm Calm - N/A   Clear
3:53 AM 53.1 °F 50.0 °F 89% 30.00 in 10.0 mi Calm Calm - N/A   Clear
4:53 AM 52.0 °F 50.0 °F 93% 30.00 in 10.0 mi Calm Calm - N/A   Clear
5:53 AM 53.1 °F 50.0 °F 89% 30.01 in 10.0 mi Calm Calm - N/A   Clear
6:53 AM 52.0 °F 48.9 °F 89% 30.02 in 10.0 mi SSW 3.5 mph - N/A   Clear
7:53 AM 52.0 °F 50.0 °F 93% 30.03 in 10.0 mi Calm Calm - N/A   Clear
8:53 AM 57.0 °F 53.1 °F 87% 30.03 in 10.0 mi SSW 3.5 mph - N/A   Clear
9:53 AM 63.0 °F 55.0 °F 75% 30.03 in 10.0 mi WSW 4.6 mph - N/A   Clear
10:53 AM 68.0 °F 55.9 °F 65% 30.02 in 10.0 mi Variable 4.6 mph - N/A   Clear
11:53 AM 73.0 °F 52.0 °F 48% 30.01 in 10.0 mi Variable 5.8 mph - N/A   Clear
12:53 PM 73.9 °F 48.9 °F 41% 29.99 in 10.0 mi WSW 6.9 mph - N/A   Clear
1:53 PM 75.0 °F 50.0 °F 41% 29.96 in 10.0 mi Variable 5.8 mph - N/A   Clear
2:53 PM 75.9 °F 51.1 °F 42% 29.95 in 9.0 mi WSW 6.9 mph - N/A   Partly Cloudy
3:53 PM 77.0 °F 53.1 °F 43% 29.94 in 10.0 mi WSW 8.1 mph - N/A   Scattered Clouds
4:53 PM 77.0 °F 54.0 °F 45% 29.92 in 10.0 mi Variable 6.9 mph - N/A   Clear
5:53 PM 75.0 °F 55.0 °F 50% 29.92 in 10.0 mi Variable 4.6 mph - N/A   Partly Cloudy
6:53 PM 73.9 °F 55.9 °F 53% 29.91 in 10.0 mi Variable 3.5 mph - N/A   Clear
7:53 PM 69.1 °F 57.0 °F 65% 29.91 in 10.0 mi Calm Calm - N/A   Clear
8:53 PM 64.0 °F 57.0 °F 78% 29.91 in 10.0 mi Calm Calm - N/A   Clear
9:53 PM 64.0 °F 57.0 °F 78% 29.89 in 10.0 mi South 3.5 mph - N/A   Clear
10:53 PM 63.0 °F 55.9 °F 78% 29.86 in 10.0 mi South 5.8 mph - N/A   Clear
11:53 PM 62.1 °F 55.9 °F 80% 29.85 in 10.0 mi South 4.6 mph - N/A   Clear